Chesapeake, VA

8:42 AM EDT on August 18, 2017 (GMT -0400)
Chesapeake Regional

Weather History for KCPK - October, 2013

Change the Weather History Date:

Tuesday, October 8, 2013

  Actual Average (KSFQ) Record (KSFQ)
Temperature  
Mean Temperature 64 °F -  
Max Temperature 66 °F 72 °F 89 °F (2007)
Min Temperature 62 °F 51 °F 37 °F (1953)
Degree Days  
Heating Degree Days 1    
Growing Degree Days 14 (Base 50)    
Moisture  
Dew Point 54 °F    
Average Humidity 69    
Maximum Humidity 100    
Minimum Humidity 52    
Precipitation  
Precipitation 0.00 in - - ()
Sea Level Pressure  
Sea Level Pressure 30.13 in    
Wind  
Wind Speed 10 mph (NNE)    
Max Wind Speed 16 mph    
Max Gust Speed 25 mph    
Visibility 8 miles    
Events Rain    
Averages and records for this station are not official NWS values.
T = Trace of Precipitation, MM = Missing Value Source: NWS Daily Summary

Daily Weather History Graph

Daily Weather History Graph

Search for Another Location

Airport or City:

Trip Planner

Search our weather history database for the weather conditions in past years. The results will help you decide how hot, cold, wet, or windy it might be!

Date:

Astronomy

Oct. 08, 2013 Rise Set
Actual Time 7:06 AM EDT 6:38 PM EDT
Civil Twilight 6:40 AM EDT 7:04 PM EDT
Nautical Twilight 6:10 AM EDT 7:33 PM EDT
Astronomical Twilight 5:40 AM EDT 8:03 PM EDT
Moon 10:52 AM EDT (10/8) 9:18 PM EDT (10/8)
Length of Visible Light 12h 23m
Length of Day
11h 31m
Waxing Crescent, 16% of the Moon is Illuminated
Oct 8
Waxing Crescent
Oct 11
First Quarter
Oct 18
Full
Oct 26
Last Quarter
Nov 3
New

Hourly Weather History & Observations

Time (EDT) Temp. Dew Point Humidity Pressure Visibility Wind Dir Wind Speed Gust Speed Precip Events Conditions
12:15 AM 64.4 °F 64.4 °F 100% 30.01 in 7.0 mi North 5.8 mph - 0.01 in   Overcast
12:35 AM 64.4 °F 62.6 °F 94% 30.01 in 7.0 mi North 6.9 mph - 0.01 in   Overcast
12:55 AM 64.4 °F 62.6 °F 94% 30.01 in 10.0 mi North 8.1 mph - N/A   Overcast
1:15 AM 64.4 °F 59.0 °F 83% 30.01 in 10.0 mi North 8.1 mph - N/A   Overcast
1:35 AM 64.4 °F 57.2 °F 77% 30.02 in 10.0 mi North 6.9 mph - N/A   Overcast
1:55 AM 64.4 °F 57.2 °F 77% 30.02 in 10.0 mi North 5.8 mph - N/A   Overcast
2:15 AM 66.2 °F 59.0 °F 78% 30.04 in 10.0 mi North 5.8 mph - N/A   Overcast
2:35 AM 66.2 °F 57.2 °F 73% 30.04 in 10.0 mi NNE 6.9 mph - N/A   Overcast
2:55 AM 66.2 °F 57.2 °F 73% 30.04 in 10.0 mi NNE 5.8 mph - N/A Rain Rain
3:15 AM 66.2 °F 59.0 °F 78% 30.04 in 10.0 mi NNE 8.1 mph - N/A   Overcast
3:35 AM 66.2 °F 57.2 °F 73% 30.05 in 10.0 mi NNE 11.5 mph 18.4 mph N/A   Overcast
3:55 AM 66.2 °F 57.2 °F 73% 30.06 in 10.0 mi NNE 10.4 mph - N/A   Overcast
4:15 AM 66.2 °F 55.4 °F 68% 30.06 in 10.0 mi NNE 12.7 mph 20.7 mph N/A   Overcast
4:35 AM 64.4 °F 51.8 °F 64% 30.07 in 10.0 mi NNE 11.5 mph - N/A   Overcast
4:55 AM 64.4 °F 48.2 °F 56% 30.08 in 10.0 mi NNE 13.8 mph 21.9 mph N/A   Overcast
5:15 AM 64.4 °F 48.2 °F 56% 30.08 in 10.0 mi North 10.4 mph 17.3 mph N/A   Overcast
5:35 AM 64.4 °F 48.2 °F 56% 30.08 in 10.0 mi North 9.2 mph - N/A   Overcast
5:55 AM 64.4 °F 48.2 °F 56% 30.09 in 10.0 mi NNE 12.7 mph 17.3 mph N/A   Overcast
6:15 AM 64.4 °F 46.4 °F 52% 30.10 in 10.0 mi NNE 12.7 mph 20.7 mph N/A   Overcast
6:35 AM 64.4 °F 46.4 °F 52% 30.10 in 10.0 mi NNE 13.8 mph 20.7 mph N/A   Overcast
6:55 AM 64.4 °F 46.4 °F 52% 30.11 in 10.0 mi NNE 11.5 mph 19.6 mph N/A   Overcast
7:15 AM 64.4 °F 48.2 °F 56% 30.11 in 10.0 mi NNE 10.4 mph 17.3 mph N/A   Overcast
7:35 AM 64.4 °F 48.2 °F 56% 30.12 in 10.0 mi NNE 13.8 mph 19.6 mph N/A   Overcast
7:55 AM 64.4 °F 48.2 °F 56% 30.13 in 10.0 mi NNE 12.7 mph 20.7 mph N/A   Overcast
8:15 AM 64.4 °F 48.2 °F 56% 30.15 in 10.0 mi NNE 11.5 mph 19.6 mph N/A   Overcast
8:35 AM 64.4 °F 46.4 °F 52% 30.16 in 10.0 mi NNE 12.7 mph 20.7 mph N/A   Overcast
8:55 AM 64.4 °F 48.2 °F 56% 30.16 in 10.0 mi NNE 10.4 mph 16.1 mph N/A   Overcast
9:15 AM 64.4 °F 48.2 °F 56% 30.17 in 10.0 mi NNE 11.5 mph 21.9 mph N/A   Overcast
9:35 AM 64.4 °F 48.2 °F 56% 30.17 in 10.0 mi NNE 9.2 mph 19.6 mph N/A   Overcast
9:55 AM 62.6 °F 48.2 °F 59% 30.17 in 7.0 mi NNE 13.8 mph 23.0 mph N/A   Overcast
10:15 AM 62.6 °F 50.0 °F 63% 30.18 in 10.0 mi NNE 9.2 mph 17.3 mph N/A   Overcast
10:35 AM 62.6 °F 51.8 °F 68% 30.18 in 10.0 mi North 11.5 mph - N/A   Overcast
10:55 AM 62.6 °F 51.8 °F 68% 30.18 in 10.0 mi NNE 10.4 mph 17.3 mph N/A   Overcast
11:15 AM 62.6 °F 53.6 °F 72% 30.18 in 10.0 mi North 6.9 mph - N/A   Overcast
11:35 AM 62.6 °F 53.6 °F 72% 30.19 in 10.0 mi North 8.1 mph - N/A Rain Light Rain
11:55 AM 62.6 °F 53.6 °F 72% 30.18 in 7.0 mi North 9.2 mph 17.3 mph N/A   Overcast
12:15 PM 64.4 °F 53.6 °F 68% 30.18 in 7.0 mi NNE 10.4 mph 17.3 mph N/A   Overcast
12:35 PM 64.4 °F 53.6 °F 68% 30.18 in 7.0 mi NNE 15.0 mph 23.0 mph N/A   Overcast
12:55 PM 64.4 °F 53.6 °F 68% 30.16 in 7.0 mi NNE 15.0 mph 19.6 mph N/A   Overcast
1:15 PM 64.4 °F 53.6 °F 68% 30.16 in 7.0 mi NNE 12.7 mph 25.3 mph N/A   Overcast
1:35 PM 64.4 °F 53.6 °F 68% 30.16 in 7.0 mi NNE 13.8 mph 17.3 mph N/A   Overcast
1:55 PM 64.4 °F 53.6 °F 68% 30.16 in 7.0 mi NNE 9.2 mph 19.6 mph N/A   Overcast
2:15 PM 66.2 °F 53.6 °F 64% 30.16 in 7.0 mi North 9.2 mph - N/A   Overcast
2:35 PM 64.4 °F 53.6 °F 68% 30.15 in 7.0 mi NNE 12.7 mph 23.0 mph N/A   Overcast
2:55 PM 66.2 °F 53.6 °F 64% 30.15 in 5.0 mi NNE 11.5 mph 21.9 mph N/A   Haze
3:15 PM 64.4 °F 53.6 °F 68% 30.16 in 4.0 mi NE 16.1 mph 19.6 mph N/A   Haze
3:35 PM 64.4 °F 53.6 °F 68% 30.16 in 5.0 mi NNE 12.7 mph 19.6 mph N/A   Haze
3:55 PM 64.4 °F 55.4 °F 73% 30.16 in 7.0 mi NNE 6.9 mph 19.6 mph N/A   Overcast
4:15 PM 64.4 °F 55.4 °F 73% 30.16 in 5.0 mi NNE 10.4 mph - N/A   Haze
4:35 PM 64.4 °F 55.4 °F 73% 30.16 in 7.0 mi NNE 10.4 mph 17.3 mph N/A   Overcast
4:55 PM 64.4 °F 55.4 °F 73% 30.16 in 7.0 mi NNE 8.1 mph - N/A   Overcast
5:15 PM 64.4 °F 55.4 °F 73% 30.16 in 5.0 mi NNE 13.8 mph 19.6 mph N/A   Haze
5:35 PM 64.4 °F 55.4 °F 73% 30.16 in 7.0 mi NNE 11.5 mph 17.3 mph N/A   Overcast
5:55 PM 64.4 °F 57.2 °F 77% 30.16 in 7.0 mi NNE 8.1 mph 17.3 mph N/A   Overcast
6:15 PM 64.4 °F 57.2 °F 77% 30.16 in 7.0 mi NNE 9.2 mph 19.6 mph N/A   Overcast
6:35 PM 64.4 °F 57.2 °F 77% 30.17 in 7.0 mi North 8.1 mph - N/A   Overcast
6:55 PM 64.4 °F 57.2 °F 77% 30.16 in 7.0 mi North 10.4 mph - N/A   Overcast
7:15 PM 64.4 °F 57.2 °F 77% 30.16 in 7.0 mi North 12.7 mph 18.4 mph N/A   Overcast
7:35 PM 64.4 °F 57.2 °F 77% 30.16 in 7.0 mi North 10.4 mph 17.3 mph N/A   Overcast
7:55 PM 64.4 °F 57.2 °F 77% 30.17 in 7.0 mi North 9.2 mph - N/A   Overcast
8:15 PM 64.4 °F 57.2 °F 77% 30.17 in 7.0 mi North 8.1 mph 16.1 mph N/A   Overcast
8:35 PM 64.4 °F 57.2 °F 77% 30.17 in 7.0 mi NNE 15.0 mph 21.9 mph N/A   Light Drizzle
8:55 PM 64.4 °F 55.4 °F 73% 30.17 in 10.0 mi NNE 13.8 mph 19.6 mph N/A Rain Light Rain
9:15 PM 64.4 °F 55.4 °F 73% 30.17 in 10.0 mi NNE 11.5 mph 20.7 mph N/A Rain Light Rain
9:35 PM 64.4 °F 55.4 °F 73% 30.18 in 10.0 mi NNE 12.7 mph 17.3 mph N/A Rain Light Rain
9:55 PM 64.4 °F 55.4 °F 73% 30.18 in 10.0 mi NNE 13.8 mph 23.0 mph N/A Rain Light Rain
10:15 PM 64.4 °F 55.4 °F 73% 30.18 in 7.0 mi NNE 10.4 mph - N/A   Overcast
10:35 PM 64.4 °F 53.6 °F 68% 30.19 in 7.0 mi NNE 11.5 mph 20.7 mph N/A   Mostly Cloudy
10:55 PM 64.4 °F 53.6 °F 68% 30.19 in 10.0 mi NNE 12.7 mph - N/A Rain Light Rain
11:15 PM 64.4 °F 55.4 °F 73% 30.19 in 10.0 mi NNE 12.7 mph - N/A Rain Light Rain
11:35 PM 62.6 °F 55.4 °F 77% 30.19 in 10.0 mi North 6.9 mph 16.1 mph N/A Rain Light Rain
11:55 PM 62.6 °F 55.4 °F 77% 30.18 in 7.0 mi NNE 9.2 mph - N/A Rain Light Rain